Location: Demmingen
(48.6757°N, 10.4375°E)
Time: 10:00:35
(UTC+00:00)

Cosmos 724 - Pass Details

Date: 23 May 2024
Orbit: 864 x 930 km, 65.6° (Epoch: 15 June)

Event Time Altitude Azimuth Distance (km) Brightness Sun altitude
Exits shadow 00:12:02 27° 232° (SW) 1,613 5.2 -19.5°
Maximum altitude 00:15:18 70° 310° (NW) 931 4.4 -19.4°
Drops below altitude 10° 00:21:08 10° 35° (NE) 2,523 7.8 -19.1°
Sets 00:23:37 0° 38° (NE) 3,460 8.7 -19.0°
